Flag for Germany Weather past 2 weeks in Rheinberg, North Rhine-Westphalia, Germany

Now
60 °F

Passing clouds.


Feels Like: 60 °F
Forecast: 48 / 70 °F
Wind: 8 mph from Northeast

Location: Duesseldorf


UV Index: 3 (Moderate)

Visibility: 25 mi


Pressure: 29.98 "Hg

Humidity: 45%

Dew point: 39 °F

Location of RheinbergLocation

Historic Weather in Rheinberg

°F

Rheinberg temperature yesterday

Maximum temperature yesterday: 54 °F (at 5:00 PM)
Minimum temperature yesterday: 43 °F (at 7:00 AM)
Average temperature yesterday: 49 °F

Past Weeks' High & Low Weather Summary

 TemperatureHumidityPressure
High70 °F (Apr 7, 4:00 PM)97% (Apr 12, 8:00 AM)30.47 "Hg (Apr 12, 8:00 AM)
Low30 °F (Apr 16, 5:00 AM)26% (Apr 17, 5:00 PM)29.75 "Hg (Apr 7, 11:00 PM)
Average52 °F68%30.10 "Hg
* Reported Apr 4 3:00 PM — Apr 19 3:00 PM, Rheinberg, Weather by CustomWeather, © 2014

Note: Actual official high and low records may vary slightly from our data, if they occured in-between our weather recording intervals... More about our weather records

Advertising

Historic Weather Conditions — Data for Previous 24 hours

 ConditionsComfort  
Time TempWeatherWind HumidityBarometerVisibility
3:00 PM
Apr 19
59 °FPassing clouds.8 mph49%30.01 "Hg25 mi
2:00 PM59 °FPassing clouds.7 mph49%30.02 "Hg25 mi
1:00 PM56 °FPassing clouds.6 mph50%30.04 "Hg25 mi
12:00 PM54 °FPassing clouds.6 mph55%30.06 "Hg28 mi
11:00 AM51 °FPassing clouds.7 mph62%30.08 "Hg25 mi
10:00 AM50 °FPassing clouds.6 mph65%30.07 "Hg25 mi
9:00 AM46 °FPassing clouds.3 mph79%30.07 "Hg19 mi
8:00 AM42 °FPassing clouds.1 mph88%30.06 "Hg9 mi
7:00 AM39 °FFog.1 mph93%30.04 "Hg7 mi
6:00 AM41 °FPassing clouds.2 mph90%30.03 "Hg9 mi
5:00 AM41 °FOvercast.1 mph91%30.01 "Hg11 mi
4:00 AM41 °FOvercast.1 mph88%30.01 "Hg14 mi
3:00 AM43 °FOvercast.3 mph85%30.01 "Hg17 mi
2:00 AM42 °FOvercast.3 mph87%30.01 "Hg19 mi
1:00 AM42 °FPassing clouds.2 mph84%30.02 "Hg19 mi
12:00 AM42 °FPassing clouds.3 mph81%30.01 "Hg22 mi
11:00 PM
Apr 18
44 °FPassing clouds.3 mph77%30.01 "Hg22 mi
10:00 PM45 °FPassing clouds.2 mph71%30.01 "Hg22 mi
9:00 PM48 °FPassing clouds.6 mph58%29.99 "Hg22 mi
8:00 PM51 °FScattered clouds.9 mph55%29.97 "Hg22 mi
7:00 PM52 °FPassing clouds.7 mph53%29.97 "Hg22 mi
6:00 PM52 °FPartly sunny.6 mph56%29.97 "Hg22 mi
5:00 PM54 °FScattered clouds.6 mph46%29.97 "Hg22 mi
4:00 PM54 °FScattered clouds.8 mph46%29.98 "Hg22 mi
Weather by CustomWeather, © 2014

See weather overview